• In Hungary
  • List of Countries
  • For 7 days
  • Water Temperature
  • Satellite Maps
  • Weather Map
  • News
  • Weather Widgets
  • user-avatar
    Login

    Hourly Weather Pontefract

    Today, 18 July, Wednesday

    Time Temperature Precipitation Wind Pressure Humidity
    00:00 +13°C° 0 mm 1 mps 758 mmHg 82%
    01:00 +13°C° 0 mm 1 mps 758 mmHg 82%
    02:00 +13°C° 0 mm 1 mps 758 mmHg 83%
    03:00 +13°C° 0 mm 1 mps 758 mmHg 84%
    04:00 +13°C° 0 mm 1 mps 758 mmHg 81%
    05:00 +14°C° 0 mm 1 mps 759 mmHg 79%
    06:00 +15°C° 0 mm 1 mps 759 mmHg 76%
    07:00 +18°C° 0 mm 1 mps 759 mmHg 71%
    08:00 +19°C° 0 mm 1 mps 759 mmHg 66%
    09:00 +21°C° 0 mm 1 mps 759 mmHg 61%
    10:00 +20°C° 0.1 mm 2 mps 759 mmHg 59%
    11:00 +21°C° 0.1 mm 2 mps 759 mmHg 57%
    12:00 +23°C° 0.1 mm 2 mps 759 mmHg 54%
    13:00 +23°C° 0.1 mm 2 mps 759 mmHg 54%
    14:00 +24°C° 0.1 mm 2 mps 759 mmHg 53%
    15:00 +24°C° 0.1 mm 2 mps 759 mmHg 52%
    16:00 +23°C° 0.1 mm 2 mps 759 mmHg 56%
    17:00 +23°C° 0.1 mm 2 mps 759 mmHg 60%
    18:00 +21°C° 0.1 mm 2 mps 759 mmHg 64%
    19:00 +20°C° 0.1 mm 2 mps 760 mmHg 68%
    20:00 +20°C° 0.1 mm 1 mps 760 mmHg 72%
    21:00 +19°C° 0.1 mm 1 mps 760 mmHg 76%
    22:00 +18°C° 0 mm 1 mps 760 mmHg 77%
    23:00 +18°C° 0 mm 1 mps 760 mmHg 79%

    Tomorrow, 19 July, Thursday

    Time Temperature Precipitation Wind Pressure Humidity
    00:00 +16°C° 0 mm 1 mps 760 mmHg 81%
    01:00 +16°C° 0 mm 1 mps 760 mmHg 82%
    02:00 +15°C° 0 mm 1 mps 760 mmHg 83%
    03:00 +15°C° 0 mm 1 mps 760 mmHg 84%
    04:00 +16°C° 0 mm 1 mps 760 mmHg 82%
    05:00 +16°C° 0 mm 1 mps 760 mmHg 80%
    06:00 +18°C° 0 mm 1 mps 760 mmHg 78%
    07:00 +20°C° 0 mm 1 mps 760 mmHg 73%
    08:00 +21°C° 0 mm 1 mps 760 mmHg 68%
    09:00 +22°C° 0 mm 1 mps 760 mmHg 63%
    10:00 +23°C° 0.1 mm 2 mps 760 mmHg 60%
    11:00 +24°C° 0.1 mm 2 mps 760 mmHg 56%
    12:00 +25°C° 0.1 mm 2 mps 760 mmHg 53%
    13:00 +25°C° 0.1 mm 2 mps 760 mmHg 53%
    14:00 +25°C° 0.1 mm 2 mps 760 mmHg 54%
    15:00 +25°C° 0.1 mm 2 mps 759 mmHg 54%
    16:00 +24°C° 0.1 mm 3 mps 759 mmHg 57%
    17:00 +24°C° 0.1 mm 3 mps 759 mmHg 59%
    18:00 +22°C° 0.1 mm 3 mps 759 mmHg 62%
    19:00 +20°C° 0 mm 3 mps 759 mmHg 66%
    20:00 +19°C° 0 mm 3 mps 759 mmHg 70%
    21:00 +17°C° 0 mm 2 mps 759 mmHg 74%
    22:00 +16°C° 0 mm 2 mps 759 mmHg 74%
    23:00 +16°C° 0 mm 2 mps 759 mmHg 74%

    Day after tomorrow, 20 July, Friday

    Time Temperature Precipitation Wind Pressure Humidity
    00:00 +15°C° 0 mm 2 mps 759 mmHg 75%
    01:00 +14°C° 0 mm 2 mps 759 mmHg 75%
    02:00 +14°C° 0 mm 1 mps 759 mmHg 76%
    03:00 +13°C° 0 mm 1 mps 758 mmHg 76%
    04:00 +14°C° 0 mm 1 mps 758 mmHg 75%
    05:00 +15°C° 0 mm 2 mps 758 mmHg 74%
    06:00 +15°C° 0 mm 2 mps 758 mmHg 73%
    07:00 +17°C° 0 mm 2 mps 758 mmHg 68%
    08:00 +18°C° 0 mm 2 mps 758 mmHg 63%
    09:00 +20°C° 0 mm 2 mps 758 mmHg 58%
    10:00 +21°C° 0 mm 3 mps 758 mmHg 55%
    11:00 +22°C° 0 mm 3 mps 757 mmHg 53%
    12:00 +22°C° 0 mm 3 mps 757 mmHg 50%
    13:00 +22°C° 0 mm 3 mps 757 mmHg 53%
    14:00 +22°C° 0 mm 3 mps 757 mmHg 55%
    15:00 +22°C° 0 mm 4 mps 757 mmHg 58%
    16:00 +21°C° 0.1 mm 3 mps 756 mmHg 64%
    17:00 +19°C° 0.1 mm 3 mps 756 mmHg 71%
    18:00 +18°C° 0.1 mm 3 mps 756 mmHg 78%
    19:00 +17°C° 0.1 mm 2 mps 756 mmHg 80%
    20:00 +17°C° 0.1 mm 2 mps 756 mmHg 83%
    21:00 +16°C° 0.1 mm 1 mps 756 mmHg 85%
    22:00 +16°C° 0 mm 1 mps 756 mmHg 86%
    23:00 +16°C° 0 mm 1 mps 756 mmHg 88%

    21 July, Saturday

    Time Temperature Precipitation Wind Pressure Humidity
    00:00 +16°C° 0 mm 1 mps 756 mmHg 90%
    01:00 +16°C° 0 mm 1 mps 756 mmHg 90%
    02:00 +16°C° 0 mm 1 mps 756 mmHg 91%
    03:00 +16°C° 0 mm 2 mps 756 mmHg 91%
    04:00 +16°C° 0 mm 2 mps 756 mmHg 90%
    05:00 +16°C° 0 mm 2 mps 756 mmHg 89%
    06:00 +17°C° 0 mm 2 mps 756 mmHg 88%
    07:00 +17°C° 0 mm 2 mps 756 mmHg 84%
    08:00 +18°C° 0 mm 3 mps 756 mmHg 80%
    09:00 +19°C° 0 mm 3 mps 756 mmHg 76%
    10:00 +20°C° 0.1 mm 3 mps 757 mmHg 72%
    11:00 +21°C° 0.1 mm 3 mps 757 mmHg 68%
    12:00 +21°C° 0.1 mm 3 mps 757 mmHg 64%
    13:00 +22°C° 0.1 mm 3 mps 757 mmHg 63%
    14:00 +22°C° 0.1 mm 3 mps 757 mmHg 63%
    15:00 +22°C° 0.1 mm 3 mps 757 mmHg 62%
    16:00 +21°C° 0.1 mm 3 mps 757 mmHg 64%
    17:00 +21°C° 0.1 mm 3 mps 757 mmHg 67%
    18:00 +21°C° 0.1 mm 3 mps 757 mmHg 69%
    19:00 +19°C° 0 mm 3 mps 758 mmHg 74%
    20:00 +18°C° 0 mm 2 mps 758 mmHg 79%
    21:00 +17°C° 0 mm 2 mps 758 mmHg 84%
    22:00 +16°C° 0 mm 2 mps 758 mmHg 85%
    23:00 +16°C° 0 mm 2 mps 759 mmHg 86%

    22 July, Sunday

    Time Temperature Precipitation Wind Pressure Humidity
    00:00 +16°C° 0 mm 2 mps 759 mmHg 87%
    01:00 +15°C° 0 mm 2 mps 759 mmHg 87%
    02:00 +15°C° 0 mm 2 mps 759 mmHg 87%
    03:00 +14°C° 0 mm 2 mps 759 mmHg 88%
    04:00 +15°C° 0 mm 2 mps 759 mmHg 86%
    05:00 +15°C° 0 mm 2 mps 759 mmHg 84%
    06:00 +16°C° 0 mm 3 mps 759 mmHg 82%
    07:00 +17°C° 0 mm 2 mps 759 mmHg 77%
    08:00 +19°C° 0 mm 2 mps 759 mmHg 72%
    09:00 +20°C° 0 mm 2 mps 759 mmHg 67%
    10:00 +21°C° 0 mm 3 mps 759 mmHg 65%
    11:00 +22°C° 0 mm 3 mps 759 mmHg 63%
    12:00 +24°C° 0 mm 3 mps 758 mmHg 61%
    13:00 +25°C° 0 mm 3 mps 758 mmHg 61%
    14:00 +25°C° 0 mm 3 mps 758 mmHg 61%
    15:00 +25°C° 0 mm 4 mps 758 mmHg 62%
    16:00 +25°C° 0 mm 4 mps 758 mmHg 63%
    17:00 +23°C° 0 mm 4 mps 758 mmHg 65%
    18:00 +24°C° 0 mm 3 mps 758 mmHg 67%
    19:00 +21°C° 0 mm 3 mps 758 mmHg 72%
    20:00 +20°C° 0 mm 2 mps 758 mmHg 77%
    21:00 +19°C° 0 mm 2 mps 758 mmHg 82%
    22:00 +18°C° 0 mm 2 mps 758 mmHg 83%
    23:00 +18°C° 0 mm 2 mps 758 mmHg 85%

    23 July, Monday

    Time Temperature Precipitation Wind Pressure Humidity
    00:00 +17°C° 0 mm 2 mps 758 mmHg 86%
    01:00 +17°C° 0 mm 2 mps 758 mmHg 87%
    02:00 +18°C° 0 mm 1 mps 758 mmHg 89%
    03:00 +18°C° 0 mm 1 mps 758 mmHg 90%
    04:00 +18°C° 0 mm 1 mps 758 mmHg 88%
    05:00 +19°C° 0 mm 1 mps 758 mmHg 86%
    06:00 +20°C° 0 mm 1 mps 758 mmHg 84%
    07:00 +20°C° 0 mm 2 mps 758 mmHg 79%
    08:00 +21°C° 0 mm 2 mps 758 mmHg 74%
    09:00 +24°C° 0 mm 2 mps 757 mmHg 69%
    10:00 +25°C° 0 mm 2 mps 757 mmHg 66%
    11:00 +25°C° 0 mm 3 mps 757 mmHg 62%
    12:00 +26°C° 0 mm 3 mps 757 mmHg 59%
    13:00 +27°C° 0 mm 3 mps 756 mmHg 58%
    14:00 +27°C° 0 mm 3 mps 756 mmHg 57%
    15:00 +27°C° 0 mm 3 mps 756 mmHg 57%
    16:00 +27°C° 0 mm 3 mps 756 mmHg 59%
    17:00 +26°C° 0 mm 3 mps 756 mmHg 62%
    18:00 +26°C° 0 mm 3 mps 755 mmHg 64%
    19:00 +24°C° 0 mm 3 mps 756 mmHg 70%
    20:00 +21°C° 0 mm 2 mps 756 mmHg 76%
    21:00 +20°C° 0 mm 2 mps 756 mmHg 82%
    22:00 +20°C° 0 mm 1 mps 756 mmHg 84%
    23:00 +19°C° 0 mm 1 mps 756 mmHg 86%
    Show more